Location: Campolattaro
(41.2833°N, 14.7333°E)
Time: 19:41:00
(UTC+00:00)

Okean-O - Pass Details

Date: 19 May 2025
Orbit: 628 x 631 km, 98.0° (Epoch: 20 June)

Event Time Altitude Azimuth Distance (km) Brightness Sun altitude
Exits shadow 20:03:42 20° 184° (S) 1,481 4.1 -16.7°
Maximum altitude 20:06:41 59° 259° (W) 733 3.0 -17.1°
Drops below altitude 10° 20:11:01 10° 339° (NNW) 2,020 6.3 -17.6°
Sets 20:13:16 0° 344° (NNW) 2,932 7.2 -17.9°
